User: anonymous   Login
Location: *
(37.5724°S, 58.0067°E)
Time: 06:24:14
(UTC+00:00)
Language:

CZ-3A R/B - Orbit

View from above orbital plane
View from above orbital plane
View from above satellite
View from above satellite

Ground track
Ground track

The orbit data is extracted from the following two-line orbital elements,

1 37385U 11013B   20335.96080072 -.00000111 +00000-0 +00000-0 0  9991
2 37385 055.4354 304.8195 6553509 289.4144 013.7805 02.63328024091700
Epoch (UTC): 30 November 2020 23:03:33
Eccentricity: 0.6553509
inclination: 55.4354°
perigee height: 1256 km
apogee height: 30290 km
right ascension of ascending node: 304.8195°
argument of perigee: 289.4144°
revolutions per day: 2.63328024
mean anomaly at epoch: 13.7805°
orbit number at epoch: 9170

The dashed part of the orbit path shows where the satellite is in the earth's shadow,  

DLR